TimeEDT,TemperatureF,Dew PointF,Humidity,Sea Level PressureIn,VisibilityMPH,Wind Direction,Wind SpeedMPH,Gust SpeedMPH,PrecipitationIn,Events,Conditions,WindDirDegrees,DateUTC
12:56 AM,75.9,73.9,94,29.81,8.0,SE,3.5,-,N/A,,Overcast,140,2013-07-23 04:56:00
1:56 AM,75.9,73.9,94,29.78,10.0,SE,5.8,-,N/A,,Overcast,140,2013-07-23 05:56:00
2:56 AM,75.9,73.9,94,29.75,8.0,SSE,6.9,-,N/A,,Overcast,150,2013-07-23 06:56:00
3:56 AM,77.0,75.0,94,29.73,7.0,South,8.1,-,0.00,Rain,Light Rain,170,2013-07-23 07:56:00
4:56 AM,77.0,75.0,94,29.72,6.0,South,6.9,-,0.01,Rain,Light Rain,180,2013-07-23 08:56:00
5:56 AM,77.0,75.0,94,29.72,5.0,South,5.8,-,0.02,Rain,Light Rain,180,2013-07-23 09:56:00
6:56 AM,75.9,75.0,97,29.70,5.0,SSW,6.9,-,0.05,Rain,Light Rain,210,2013-07-23 10:56:00
7:56 AM,77.0,75.0,94,29.69,5.0,SSW,8.1,-,0.01,,Overcast,200,2013-07-23 11:56:00
8:56 AM,77.0,75.9,96,29.67,7.0,South,10.4,-,N/A,,Overcast,190,2013-07-23 12:56:00
9:22 AM,78.8,75.2,89,29.66,9.0,South,11.5,-,N/A,,Mostly Cloudy,190,2013-07-23 13:22:00
9:30 AM,78.8,75.2,89,29.66,8.0,South,9.2,-,N/A,,Overcast,190,2013-07-23 13:30:00
9:56 AM,79.0,75.0,88,29.65,10.0,South,11.5,-,N/A,,Overcast,190,2013-07-23 13:56:00
10:15 AM,80.6,73.4,79,29.65,10.0,SSW,8.1,-,N/A,,Scattered Clouds,200,2013-07-23 14:15:00
10:56 AM,80.1,72.0,76,29.65,10.0,WSW,9.2,18.4,N/A,,Scattered Clouds,240,2013-07-23 14:56:00
11:15 AM,78.8,71.6,78,29.66,10.0,SW,12.7,-,N/A,,Mostly Cloudy,230,2013-07-23 15:15:00
11:44 AM,80.6,71.6,74,29.65,10.0,SSW,10.4,19.6,N/A,,Scattered Clouds,210,2013-07-23 15:44:00
11:56 AM,81.0,71.1,72,29.65,10.0,SSW,12.7,-,N/A,,Scattered Clouds,200,2013-07-23 15:56:00
12:07 PM,80.6,71.6,74,29.65,10.0,SW,15.0,-,N/A,,Mostly Cloudy,220,2013-07-23 16:07:00
12:51 PM,80.6,71.6,74,29.64,10.0,SW,11.5,-,N/A,,Mostly Cloudy,220,2013-07-23 16:51:00
12:54 PM,82.4,71.6,70,29.64,10.0,SSW,12.7,-,N/A,,Scattered Clouds,210,2013-07-23 16:54:00
12:56 PM,82.0,72.0,71,29.64,10.0,SSW,10.4,-,N/A,,Scattered Clouds,200,2013-07-23 16:56:00
1:56 PM,81.0,71.1,72,29.62,10.0,SW,11.5,-,N/A,,Clear,230,2013-07-23 17:56:00
2:56 PM,82.0,73.0,74,29.62,10.0,SSW,9.2,-,N/A,,Clear,210,2013-07-23 18:56:00
3:56 PM,82.9,73.9,74,29.61,10.0,South,13.8,-,N/A,,Partly Cloudy,190,2013-07-23 19:56:00
4:56 PM,82.0,73.9,76,29.59,10.0,SSW,10.4,-,N/A,,Clear,200,2013-07-23 20:56:00
5:56 PM,81.0,73.0,77,29.58,10.0,SSW,10.4,19.6,N/A,,Clear,200,2013-07-23 21:56:00
6:56 PM,79.0,73.0,82,29.60,10.0,SW,8.1,-,N/A,,Partly Cloudy,220,2013-07-23 22:56:00
7:40 PM,75.2,68.0,78,29.62,10.0,WNW,3.5,-,N/A,,Overcast,300,2013-07-23 23:40:00
7:56 PM,73.9,69.1,85,29.61,6.0,ESE,3.5,-,0.02,Rain,Light Rain,120,2013-07-23 23:56:00
8:56 PM,73.0,71.1,93,29.62,10.0,ESE,4.6,-,0.00,,Mostly Cloudy,110,2013-07-24 00:56:00
9:56 PM,73.9,70.0,87,29.64,10.0,NNW,18.4,24.2,0.00,Rain,Light Rain,340,2013-07-24 01:56:00
10:10 PM,71.6,68.0,88,29.66,0.8,NW,15.0,28.8,0.40,Rain,Heavy Rain,310,2013-07-24 02:10:00
10:13 PM,71.6,68.0,88,29.66,0.5,NNW,8.1,28.8,0.62,Fog-Rain,Heavy Rain,330,2013-07-24 02:13:00
10:23 PM,71.6,69.8,94,29.64,1.0,East,3.5,-,0.83,Rain,Heavy Rain,90,2013-07-24 02:23:00
10:25 PM,71.6,69.8,94,29.64,1.5,East,4.6,-,0.83,Rain,Rain,80,2013-07-24 02:25:00
10:27 PM,71.6,69.8,94,29.64,3.0,East,4.6,-,0.83,Rain,Light Rain,100,2013-07-24 02:27:00
11:56 PM,70.0,68.0,93,29.62,8.0,Calm,Calm,-,0.00,,Clear,0,2013-07-24 03:56:00